Powrót do katalogu

FENGYUN 1C DEB

LostSSO
NORAD 37710·DEBRIS·🇨🇳 China

Wystrzelony May 10, 1999 z Taiyuan Satellite Launch Center

Loading…

Następne Przeloty (najbliższe 24 godziny)

TLE

NieaktualneSource: Space-Track

Epoka: Sep 11, 2024, 05:10 UTC

1 37710U 99025EMB 24255.21537237  .00003363  00000-0  36308-2 0  9998
2 37710  99.1405 248.3570 0263105 257.9323 162.3116 13.60001574502740

Śledź FENGYUN 1C DEB w czasie rzeczywistym z AllMySat

Download on the App Store